This is the latest recevied weather packets stored in our database for station/object WC4PEM-7. If no packets are shown the sender has not sent any weather packets the latest 1 day(s).
| Time | Temp. | Humidity | Pressure | Rain* | Wind** | Luminosity | Snow |
|---|---|---|---|---|---|---|---|
| 1778057009 | 19.44° C | 85% | 1015.4 hPa | 0 mm | - | - | - |
| 1778056548 | 19.44° C | 85% | 1015.5 hPa | 0 mm | - | - | - |
| 1778056465 | 19.44° C | 85% | 1015.5 hPa | 0 mm | - | - | - |
| 1778056209 | 19.44° C | 86% | 1015.3 hPa | 0 mm | - | - | - |
| 1778055911 | 19.44° C | 86% | 1015.4 hPa | 0 mm | - | - | - |
| 1778055809 | 19.44° C | 86% | 1015.3 hPa | 0 mm | - | - | - |
| 1778055209 | 19.44° C | 86% | 1015.3 hPa | 0 mm | - | - | - |
| 1778054917 | 19.44° C | 86% | 1015.6 hPa | 0 mm | - | - | - |
| 1778054009 | 18.89° C | 87% | 1015.5 hPa | 0 mm | - | - | - |
| 1778053992 | 18.89° C | 87% | 1015.4 hPa | 0 mm | - | - | - |
| 1778053709 | 18.89° C | 87% | 1015.4 hPa | 0 mm | - | - | - |
| 1778053109 | 18.89° C | 87% | 1015.4 hPa | 0 mm | - | - | - |
| 1778052509 | 18.33° C | 88% | 1015.7 hPa | 0 mm | - | - | - |
| 1778051859 | 18.33° C | 88% | 1015.6 hPa | 0 mm | - | - | - |
| 1778050155 | 18.33° C | 86% | 1015.8 hPa | 0 mm | - | - | - |
| 1778049209 | 18.89° C | 85% | 1015.9 hPa | 0 mm | - | - | - |
| 1778048134 | 19.44° C | 84% | 1016.1 hPa | 0 mm | - | - | - |
| 1778047244 | 19.44° C | 83% | 1016.2 hPa | 0 mm | - | - | - |
| 1778046810 | 19.44° C | 83% | 1016.2 hPa | 0 mm | - | - | - |
| 1778046570 | 19.44° C | 82% | 1016.1 hPa | 0 mm | - | - | - |
| 1778046210 | 20° C | 82% | 1016.3 hPa | 0 mm | - | - | - |
| 1778045943 | 20° C | 81% | 1016.3 hPa | 0 mm | - | - | - |
| 1778045910 | 20° C | 81% | 1016.3 hPa | 0 mm | - | - | - |
| 1778045610 | 20° C | 81% | 1016.3 hPa | 0 mm | - | - | - |
| 1778045310 | 20° C | 80% | 1016.3 hPa | 0 mm | - | - | - |
* Rain latest hour (hover to see other rain measurements)
** Current wind speed in m/s (hover to see current wind gust speed)